OPS 4682 DEB, 18479

Orbit data source: Space-Track

OPS 4682 DEB, 18479 is space debris in LEO originally from a launch on Sat, 03 Apr 1965 UTC launched from the Air Force Western Test Range (AFWTR). Debris objects in space refer to the collection of defunct objects orbiting the Earth. Examples of debris include non-operational satellites, rocket bodies, and fragments generated from explosions, collisions, or faulty payload assembly.

Loading next visibility...
Identifier
18479, 1965-027AC
Orbit
LEO
Country
Flag of USUS
Related business
Manufacturer
Unknown
Mission
Spacecraft
Bus & Motor
Unknown
Mass
Unknown
Launch date (UTC)
1965-04-03 (61 years ago)
Launch vehicle
Unknown
Launch site
Air Force Western Test Range (AFWTR)
Object type
Payload
Rocket body
Debris
Shape & HBR
Unknown shape, 0.1 m
Radar Cross Section
Medium (>0.1 m² and <1 m²)

Expand to show TLE details & history
Last TLE update: 4 hours ago

TLE from 4 hours ago
0 OPS 4682 DEB
1 18479U 65027AC  26175.26936682  .00000190  00000-0  62605-3 0  9994
2 18479  90.2370   5.9866 0030853  47.2722 133.2575 12.97599832948674
Epoch: 2026-06-24T06:27Z
TLE epoch observation values (Epoch: 2026-06-24T06:27:53.293Z)
Latitude
-0.90362°
Longitude
176.58182°
Altitude
1,290.722 km
Speed
7.203 km/s
True Right ascension
12h 23m 55s
True Declination
0° 53' 55"
Sunlit
Object was in daylight at epoch
Visualization orbit readout
Latitude
Unknown
Longitude
Unknown
Altitude
Unknown
Speed
Unknown
Apparent Right ascension
Unknown
Apparent Declination
Unknown
Sunlit
N/A
Visualization observer readout
Local Sidereal Time
21:56:10
Azimuth
Unknown
Elevation
Unknown
Doppler factor
Unknown
Orbital elements
Apogee altitude
1,292.228 km
Perigee altitude
1,245.043 km
Semi-major axis
7,646.773 km
Eccentricity
0.00309
Inclination
90.237°
RAAN
5.9866°
Arg. of periapsis
47.2722°
True anomaly
133.5143°
Mean anomaly
133.2575°
Eccentric anomaly
133.38597°
Mean motion
3.24583 °/min
Orbital period
110.91 mins
BSTAR
0.00062605
Loading maneuver chart data...
Computing Atmospheric mass density...
Loading historical data...
Loading historical data...
Loading historical data...
Loading historical data...
Loading historical data...
Loading historical data...
Loading historical data...

Documentation

Showing up to 5 results
|